Temperature
20 20 20 20 19 19 19 19 19 19 19 19 19 19 19 19 19 19 19 19 19 19 19 19 19 19 19 19 19 19 19 19 19 18 18 18 18 18 18 18 18 18 18
20 20 20 20 19 19 19 19 19 19 19 19 19 19 19 19 19 19 19 19 19 19 19 19 19 19 19 19 19 19 19 19 19 18 18 18 18 18 18 18 18 18 18
20 20 20 20 19 19 19 19 19 19 19 19 19 19 19 19 19 19 19 19 19 19 19 19 19 19 19 19 19 19 19 18 18 18 18 18 18 18 18 18 18 18 18
21 20 20 20 20 19 19 19 19 19 19 19 19 19 19 19 19 19 19 19 19 19 19 19 19 19 19 19 19 19 19 18 18 18 18 18 18 18 18 18 18 18 18
21 20 21 20 20 20 19 19 19 19 19 19 19 19 19 19 19 19 19 19 19 19 19 19 19 19 19 19 19 19 19 18 18 18 18 18 18 18 18 18 18 18 18
21 20 21 20 20 20 20 19 19 19 19 19 19 19 19 19 19 19 19 19 19 19 19 19 19 19 19 19 19 19 19 19 18 18 18 18 18 18 18 18 18 18 18
21 21 21 20 20 20 20 20 19 19 19 19 19 19 19 19 19 19 19 19 19 19 19 19 19 19 19 19 19 19 19 19 18 18 18 18 18 18 18 18 18 18 18
21 21 21 21 20 20 20 20 20 19 19 19 19 19 19 19 19 19 19 19 19 19 19 19 19 19 19 19 19 19 19 19 18 18 18 18 18 18 18 18 18 18 18
22 21 21 21 20 20 20 20 20 20 19 19 19 19 19 19 19 19 19 19 19 19 19 19 19 19 19 19 19 19 19 19 19 18 18 18 18 18 18 18 18 18 18
22 21 21 20 20 20 20 20 20 20 19 19 19 19 19 19 19 19 19 19 19 19 19 19 19 19 19 19 19 19 19 19 19 18 18 18 18 18 18 18 18 18 18
22 21 21 20 20 20 20 20 20 19 19 19 19 19 19 19 19 19 19 19 19 19 19 19 19 19 19 19 19 19 19 19 19 18 18 18 18 18 18 18 18 18 18
22 22 21 21 21 20 20 20 20 19 19 19 19 19 19 19 19 19 19 19 19 19 19 19 19 19 19 19 19 19 19 19 19 18 19 19 18 18 18 18 18 18 18
22 22 21 21 21 20 20 20 20 19 19 19 19 19 19 19 19 19 19 19 19 19 19 19 19 19 19 19 19 19 19 19 19 19 19 18 18 18 18 18 18 18 18
22 22 21 21 21 21 20 20 20 19 19 19 19 19 19 19 19 19 19 19 19 19 19 19 19 19 19 19 19 19 19 19 19 19 19 18 18 18 18 18 18 18 18
22 22 21 21 21 20 20 20 20 20 20 19 19 19 19 19 19 19 19 19 19 19 19 19 19 19 19 19 19 19 19 19 19 19 18 18 19 19 18 18 18 18 18
22 22 21 21 21 20 20 20 20 20 20 20 19 19 19 19 19 19 19 19 19 19 19 19 19 19 19 19 19 19 19 19 18 18 18 18 18 18 18 18 18 18 18
22 22 21 21 20 20 20 20 20 20 20 20 20 20 19 19 19 19 19 19 19 19 19 19 19 19 19 19 19 19 19 19 19 18 18 18 18 18 18 18 18 18 18
22 22 21 21 21 20 20 20 20 20 20 20 20 20 20 19 19 19 19 19 19 19 19 19 19 19 19 19 19 19 19 19 19 19 19 18 18 18 18 18 18 18 18
22 22 21 21 21 20 20 20 20 20 20 20 20 20 20 20 19 19 19 19 19 19 19 19 19 19 19 19 19 19 19 19 19 19 19 19 18 18 18 18 18 18 18
22 22 22 21 21 20 20 20 20 20 20 20 20 20 20 20 19 19 19 19 19 19 19 19 19 19 19 19 19 20 20 20 19 19 19 19 19 18 18 18 18 18 18
22 22 22 21 21 21 20 20 20 20 20 20 20 20 20 19 19 19 19 19 19 19 19 19 19 19 19 19 19 20 20 20 20 20 19 19 19 19 18 18 18 18 18
23 22 22 21 21 21 21 20 20 20 20 20 20 20 20 20 19 19 19 19 19 19 19 19 19 19 19 19 19 19 19 20 20 20 19 19 19 19 19 18 18 18 18
23 22 22 21 21 21 21 20 20 20 20 20 20 20 19 19 20 19 19 19 19 19 19 19 19 19 19 19 19 19 19 19 19 20 20 19 19 19 19 19 18 18 18
23 22 22 22 21 21 21 20 20 20 20 20 20 20 19 19 19 19 19 19 19 19 19 19 19 19 19 19 19 19 19 19 19 19 19 19 19 19 19 19 18 18 18
23 23 22 22 21 21 21 20 20 20 20 20 20 20 19 19 19 19 19 19 19 19 19 19 19 19 18 18 19 19 19 19 19 19 19 19 19 19 19 19 18 18 18
24 23 22 22 21 21 21 20 20 20 20 20 20 20 20 19 19 19 19 19 19 19 19 19 19 18 18 18 18 19 19 18 19 18 18 18 19 19 19 18 18 18 18
Wind_Speed
11 12 12 11 11 10 10 11 11 11 10 10 10 10 10 9 9 9 10 10 10 9 8 8 8 8 7 6 6 6 7 7 8 9 8 7 6 5 5 5 5 5 7
13 13 13 12 11 11 10 11 11 11 10 10 10 9 9 8 9 9 9 9 9 9 8 7 7 7 7 6 6 6 7 7 8 8 9 8 6 6 5 4 4 5 7
14 14 13 12 11 11 11 10 10 10 9 9 9 9 8 8 9 9 9 9 9 8 7 7 7 7 7 6 5 6 7 7 7 8 9 8 8 8 6 6 6 7 6
15 14 13 12 12 11 10 10 9 10 9 9 9 8 8 8 8 8 9 8 8 7 7 7 7 7 6 6 6 6 6 6 7 8 8 8 7 9 9 8 8 7 7
14 15 14 13 12 11 10 9 9 9 9 8 8 7 7 8 8 8 8 8 7 7 6 6 6 6 6 6 6 6 6 7 8 8 7 5 6 9 10 9 9 9 8
15 15 15 13 12 11 10 9 9 8 8 7 7 7 7 8 8 8 7 7 6 6 6 5 6 6 5 6 6 7 7 8 9 7 5 4 6 9 10 10 10 10 9
14 15 15 14 12 11 10 9 8 8 7 7 6 6 6 7 7 7 6 6 5 6 6 5 5 5 5 5 6 7 8 9 9 6 3 4 6 9 9 10 10 10 9
13 14 15 14 13 11 10 9 8 7 7 6 6 5 5 6 7 6 6 6 6 5 5 5 5 5 5 5 6 7 8 9 7 4 4 5 8 8 9 10 10 10 10
11 13 12 12 11 11 10 9 8 8 6 6 5 5 5 6 6 6 7 7 7 7 6 6 6 6 6 6 7 8 9 9 7 4 2 4 8 8 9 10 10 10 10
9 10 10 11 11 10 9 9 9 8 7 5 5 5 5 6 7 7 8 8 8 8 7 7 7 8 8 9 9 10 10 10 8 4 2 5 8 8 9 10 10 10 9
8 7 7 8 9 9 9 10 11 9 7 6 5 5 5 6 7 8 8 9 9 9 9 9 10 11 10 11 12 12 11 8 5 3 3 6 9 9 9 10 10 10 9
6 6 6 6 6 6 6 8 8 7 7 6 4 4 4 4 4 5 7 10 10 10 10 11 12 12 11 9 10 12 8 8 4 3 5 8 10 10 10 11 10 10 10
6 6 6 6 4 4 4 5 4 5 6 6 5 4 2 1 2 4 5 7 9 9 8 8 9 9 8 6 5 5 6 5 3 2 5 9 10 10 10 10 10 10 10
6 6 6 6 5 3 3 2 3 3 3 3 4 3 3 1 0 1 1 2 4 4 4 4 4 5 6 5 4 4 3 3 2 3 5 8 10 10 10 10 10 10 9
6 6 7 6 5 3 3 0 2 3 2 4 4 3 1 1 1 1 0 1 2 3 2 2 1 2 3 3 3 3 2 2 3 2 4 9 10 10 10 10 10 9 9
6 6 7 7 6 4 2 1 0 2 3 3 3 3 2 1 1 1 1 1 1 1 1 1 1 1 1 1 2 2 3 3 2 2 3 7 10 11 11 10 10 9 9
7 6 6 7 7 5 2 2 1 1 3 2 3 3 2 1 1 1 1 1 1 1 1 1 1 1 2 2 3 4 3 2 2 3 4 4 7 10 11 11 11 10 10
7 6 5 5 7 5 3 1 1 1 2 2 2 3 3 2 1 1 1 1 1 1 1 2 1 1 1 2 3 3 2 2 3 4 4 5 5 6 10 12 12 11 11
7 6 5 3 5 4 4 3 2 1 1 1 1 2 2 2 2 1 0 0 2 1 1 1 1 1 2 2 3 4 3 4 4 4 4 4 5 6 7 10 13 12 11
8 7 6 4 4 4 3 2 2 1 1 1 1 1 1 1 1 1 1 1 2 1 1 1 1 2 2 3 4 3 3 4 4 3 4 3 4 5 5 7 9 9 11
8 7 6 5 4 3 2 2 2 2 2 2 2 2 2 1 1 0 2 1 1 1 1 1 1 3 2 1 2 3 2 3 3 3 3 2 2 3 3 4 5 4 5
8 7 6 5 5 4 3 2 2 2 2 2 1 2 2 1 0 1 1 2 1 1 1 1 2 2 2 1 2 2 2 1 1 2 2 3 2 2 2 3 4 4 4
9 8 6 5 5 4 3 2 1 1 0 0 2 1 1 1 1 1 0 1 2 1 1 1 2 2 3 2 1 1 1 1 2 1 2 2 2 2 2 2 3 4 5
9 9 7 6 5 4 3 2 2 2 2 1 1 1 2 2 1 1 0 1 2 2 1 2 1 2 3 3 2 1 1 1 1 2 2 1 2 2 2 2 1 3 4
9 9 8 7 6 4 3 2 2 1 1 1 1 1 2 2 2 1 1 1 1 1 1 2 2 2 2 3 2 2 2 2 2 2 2 2 2 1 2 2 1 1 3
9 8 9 8 6 5 4 3 2 2 1 1 1 1 2 2 2 1 1 1 1 1 2 1 2 2 2 2 3 3 2 2 2 2 3 3 2 2 1 1 1 1 2
Wind_Direction
103 107 108 103 99 96 96 97 98 100 102 102 102 103 108 111 114 117 119 123 125 127 130 133 134 135 135 134 134 138 134 131 138 140 140 139 138 140 145 157 169 138 127
107 108 108 106 104 101 101 100 102 104 106 107 106 105 108 113 117 121 123 125 128 130 132 136 140 139 144 145 143 154 155 151 157 158 158 154 158 164 166 168 158 139 144
108 111 109 107 108 106 104 103 104 106 107 108 110 112 113 118 122 125 128 129 130 132 133 139 147 148 150 155 159 167 169 171 180 183 186 177 169 177 178 166 159 162 158
112 113 110 111 111 109 108 107 106 108 110 111 112 111 112 117 121 125 127 127 132 135 138 146 154 156 156 163 173 180 187 200 210 215 213 201 178 180 183 179 174 174 176
111 110 113 116 117 113 110 108 106 109 111 113 114 114 113 118 124 127 130 131 134 138 143 149 153 157 163 176 185 197 213 226 236 240 237 202 177 183 185 183 182 184 187
113 114 119 121 122 119 115 111 109 110 111 113 114 118 121 124 128 132 134 136 141 147 150 153 157 159 170 188 202 213 225 238 249 246 230 191 171 182 185 186 186 191 194
113 116 123 126 126 124 121 118 116 114 113 113 115 118 125 134 139 141 144 145 148 150 153 159 164 170 185 202 217 228 237 250 248 248 203 164 167 181 186 190 193 197 202
113 118 126 131 132 131 130 128 126 124 124 124 121 121 129 141 150 152 158 158 160 165 169 177 183 190 201 212 224 236 249 260 252 238 195 167 173 176 180 188 194 201 205
112 120 129 136 138 140 140 141 139 141 141 139 138 141 143 149 157 165 169 174 179 183 186 193 199 207 213 223 234 240 249 258 267 268 226 164 169 179 184 190 197 204 209
112 118 130 138 144 148 148 155 154 152 153 152 155 165 172 175 172 176 177 184 190 195 199 206 211 217 225 231 240 246 251 258 254 244 208 175 173 188 198 197 201 205 211
102 112 125 133 148 150 146 154 167 163 164 168 177 192 195 195 186 185 181 184 196 202 208 214 219 223 228 235 239 244 252 249 236 223 200 186 186 192 198 198 201 204 212
113 121 113 120 130 139 136 143 161 159 157 175 167 182 196 193 186 178 173 188 200 207 215 221 226 229 230 231 233 236 240 240 232 213 187 184 189 195 196 197 202 209 214
122 113 113 110 108 114 118 137 142 148 154 161 157 180 179 190 180 173 177 187 199 208 218 217 222 229 225 228 230 222 227 238 218 202 182 183 188 195 197 198 204 214 219
128 117 111 110 104 88 90 109 141 146 148 145 151 179 157 156 163 155 193 198 191 199 205 212 215 221 224 224 230 241 238 242 227 183 182 184 191 196 200 203 208 215 221
132 122 112 110 105 98 87 344 117 117 127 132 142 152 174 150 125 126 245 266 240 201 191 220 231 220 223 229 235 239 255 251 257 221 187 189 193 199 206 208 213 219 226
142 133 129 127 118 109 120 128 54 130 131 127 137 137 158 157 127 160 200 257 278 223 196 241 259 223 216 220 247 264 251 233 245 239 190 187 196 201 204 210 216 221 229
141 134 135 139 137 139 151 203 155 166 130 134 140 145 152 160 135 226 208 233 273 248 191 180 256 247 231 227 228 242 235 211 224 219 215 197 199 206 206 208 213 218 225
139 140 152 152 141 146 158 165 100 115 129 142 153 148 154 171 186 234 216 227 266 262 236 203 206 261 264 247 237 239 223 203 209 220 219 211 200 200 204 207 211 214 220
134 131 136 125 133 144 161 168 185 156 143 158 148 143 160 187 197 235 258 331 278 271 277 287 73 260 265 261 258 231 221 206 205 220 228 213 196 195 196 203 211 214 218
135 133 136 136 133 143 158 174 193 183 164 173 162 150 145 198 206 270 257 293 297 308 322 346 312 268 255 260 277 271 232 207 199 206 224 221 198 195 195 195 199 211 214
139 139 143 150 148 152 166 177 180 180 184 189 168 142 142 159 143 209 302 291 275 285 308 318 312 292 277 269 292 298 257 219 201 188 203 209 184 183 185 177 169 182 189
145 148 153 159 161 174 172 181 191 173 185 174 126 125 137 132 294 201 241 283 291 290 309 297 297 295 298 305 302 308 305 293 290 218 183 197 189 189 191 163 161 174 189
151 154 159 156 160 169 163 178 184 151 209 130 128 130 154 155 170 302 130 313 310 283 284 286 298 297 297 300 329 339 316 317 315 275 232 200 172 182 193 180 186 181 187
158 158 150 147 149 150 163 181 169 165 186 199 161 162 160 159 163 222 189 302 305 319 316 293 329 301 289 291 292 252 249 294 289 300 293 273 216 201 208 236 207 185 181
160 156 152 145 146 150 161 171 192 193 208 206 172 169 167 169 184 233 184 232 270 290 302 328 323 306 298 303 302 302 303 279 263 270 294 293 286 241 213 209 211 189 196
151 148 146 144 149 155 167 172 180 207 228 237 206 196 209 187 174 193 192 216 254 280 291 297 295 292 309 320 313 303 297 298 297 281 283 290 287 276 251 227 224 223 188
Height
1501 1500 1500 1500 1501 1501 1502 1502 1503 1504 1506 1507 1509 1510 1512 1513 1515 1516 1518 1519 1521 1523 1525 1526 1528 1529 1530 1532 1533 1535 1536 1537 1538 1540 1541 1542 1543 1544 1545 1546 1547 1548 1548
1501 1501 1501 1502 1502 1503 1504 1504 1505 1506 1507 1509 1510 1511 1513 1514 1516 1517 1519 1520 1522 1524 1525 1527 1528 1530 1531 1532 1533 1534 1536 1537 1538 1540 1541 1542 1543 1544 1545 1545 1547 1547 1548
1502 1502 1502 1503 1504 1504 1505 1506 1507 1508 1509 1510 1511 1512 1514 1515 1517 1518 1520 1521 1523 1525 1526 1527 1528 1530 1531 1532 1533 1534 1536 1537 1538 1540 1541 1541 1542 1543 1544 1545 1546 1547 1547
1503 1503 1504 1504 1505 1506 1507 1508 1509 1509 1510 1512 1513 1514 1514 1516 1517 1519 1521 1522 1524 1525 1527 1528 1529 1530 1531 1532 1533 1535 1536 1537 1538 1540 1541 1542 1542 1543 1543 1544 1545 1546 1547
1505 1505 1505 1506 1507 1508 1508 1509 1510 1511 1512 1513 1514 1515 1516 1517 1518 1520 1521 1523 1525 1526 1527 1528 1529 1531 1531 1533 1534 1535 1536 1537 1538 1539 1540 1541 1541 1542 1543 1543 1544 1545 1546
1506 1506 1507 1508 1508 1509 1510 1511 1511 1512 1513 1514 1515 1516 1517 1518 1519 1521 1522 1524 1525 1526 1528 1529 1530 1531 1532 1533 1534 1535 1536 1537 1538 1539 1540 1540 1541 1541 1542 1542 1543 1543 1544
1507 1508 1509 1509 1510 1510 1511 1512 1513 1514 1514 1515 1516 1517 1518 1519 1520 1521 1523 1524 1525 1527 1528 1529 1530 1531 1532 1533 1534 1535 1536 1537 1538 1539 1539 1539 1540 1540 1540 1541 1541 1542 1543
1509 1509 1510 1511 1511 1512 1513 1513 1514 1515 1516 1517 1518 1518 1519 1520 1521 1522 1523 1524 1526 1527 1528 1529 1530 1531 1532 1533 1534 1535 1535 1536 1537 1538 1538 1538 1538 1538 1538 1538 1540 1540 1541
1510 1510 1511 1512 1513 1513 1514 1515 1515 1516 1517 1518 1519 1520 1520 1521 1522 1523 1524 1525 1526 1527 1528 1529 1530 1531 1532 1533 1534 1534 1535 1535 1536 1537 1537 1536 1536 1536 1537 1537 1538 1539 1539
1512 1512 1513 1513 1514 1514 1515 1516 1517 1517 1518 1519 1520 1521 1521 1522 1523 1524 1525 1525 1526 1527 1528 1529 1530 1530 1531 1532 1533 1533 1534 1534 1534 1535 1535 1535 1535 1535 1535 1535 1536 1537 1537
1513 1514 1514 1515 1515 1516 1517 1517 1517 1518 1519 1520 1521 1522 1522 1523 1524 1525 1525 1526 1526 1527 1528 1528 1529 1530 1531 1531 1532 1532 1533 1533 1533 1533 1533 1533 1533 1533 1533 1534 1534 1535 1535
1514 1515 1515 1516 1517 1518 1518 1518 1518 1519 1520 1521 1522 1522 1523 1524 1524 1525 1526 1526 1527 1527 1527 1528 1528 1529 1529 1530 1530 1531 1531 1532 1532 1532 1531 1532 1532 1532 1532 1532 1532 1533 1533
1514 1516 1516 1517 1517 1518 1519 1520 1520 1521 1521 1522 1522 1523 1524 1524 1525 1525 1525 1526 1526 1527 1527 1527 1528 1528 1527 1528 1529 1530 1530 1531 1531 1531 1530 1530 1530 1530 1530 1530 1530 1531 1531
1515 1516 1517 1517 1518 1519 1520 1521 1521 1522 1522 1522 1523 1523 1524 1524 1525 1525 1526 1526 1527 1527 1527 1527 1527 1527 1527 1528 1528 1529 1530 1530 1530 1529 1528 1528 1528 1528 1528 1528 1528 1529 1529
1515 1516 1517 1517 1518 1519 1520 1521 1522 1522 1523 1523 1523 1524 1524 1525 1525 1525 1526 1526 1526 1527 1527 1527 1527 1526 1526 1527 1527 1527 1528 1528 1529 1528 1527 1527 1527 1527 1527 1526 1526 1527 1527
1515 1516 1517 1518 1518 1519 1520 1521 1522 1523 1523 1523 1524 1524 1525 1525 1525 1525 1526 1526 1526 1526 1526 1526 1526 1526 1526 1525 1525 1526 1526 1527 1527 1527 1527 1526 1526 1526 1525 1525 1525 1525 1526
1515 1516 1517 1518 1518 1519 1520 1521 1522 1523 1523 1524 1524 1524 1524 1525 1525 1525 1525 1526 1526 1526 1526 1526 1525 1525 1525 1525 1524 1525 1525 1525 1525 1525 1525 1525 1524 1524 1524 1524 1524 1524 1524
1514 1516 1517 1518 1518 1519 1520 1521 1522 1523 1524 1524 1524 1524 1524 1524 1525 1525 1525 1525 1525 1526 1526 1525 1524 1524 1524 1524 1523 1523 1524 1524 1524 1524 1524 1523 1523 1522 1522 1522 1522 1522 1522
1514 1515 1516 1518 1518 1519 1520 1521 1522 1522 1523 1524 1524 1524 1524 1524 1524 1524 1525 1525 1525 1525 1525 1525 1524 1523 1523 1523 1522 1522 1523 1522 1523 1523 1522 1522 1522 1521 1521 1520 1520 1520 1520
1513 1515 1516 1517 1518 1519 1519 1520 1521 1522 1523 1524 1524 1524 1524 1524 1524 1524 1524 1524 1524 1524 1524 1524 1523 1523 1523 1522 1522 1522 1521 1521 1521 1521 1521 1521 1521 1520 1520 1519 1518 1518 1518
1513 1514 1515 1516 1517 1518 1519 1520 1521 1522 1522 1523 1523 1523 1524 1524 1524 1523 1523 1523 1523 1523 1523 1523 1523 1522 1522 1522 1521 1521 1521 1520 1520 1520 1519 1519 1519 1519 1519 1518 1517 1517 1516
1512 1513 1514 1515 1516 1517 1518 1519 1520 1521 1522 1523 1523 1523 1523 1523 1523 1523 1522 1523 1523 1522 1522 1522 1522 1521 1521 1521 1521 1520 1520 1520 1519 1519 1518 1518 1518 1518 1517 1517 1516 1515 1515
1511 1512 1513 1514 1515 1517 1518 1519 1520 1521 1522 1522 1522 1522 1522 1522 1522 1522 1522 1522 1522 1521 1521 1521 1520 1520 1520 1520 1520 1520 1520 1519 1518 1518 1517 1517 1516 1516 1516 1515 1514 1513 1513
1509 1511 1512 1513 1514 1515 1517 1518 1519 1520 1520 1521 1521 1521 1522 1522 1522 1521 1521 1521 1521 1521 1520 1520 1519 1519 1519 1519 1519 1519 1519 1518 1518 1517 1516 1515 1515 1514 1514 1513 1513 1512 1511
1508 1510 1511 1512 1513 1514 1516 1517 1518 1519 1520 1520 1521 1521 1521 1521 1521 1520 1520 1519 1519 1519 1519 1518 1518 1518 1517 1517 1517 1517 1517 1517 1516 1516 1514 1514 1513 1512 1512 1511 1511 1510 1509
1507 1509 1510 1511 1512 1513 1515 1516 1517 1518 1519 1519 1520 1520 1520 1520 1519 1519 1519 1518 1518 1517 1517 1517 1516 1516 1516 1515 1515 1515 1515 1515 1514 1514 1513 1512 1511 1510 1510 1509 1509 1508 1507